TimeEDT,TemperatureF,Dew PointF,Humidity,Sea Level PressureIn,VisibilityMPH,Wind Direction,Wind SpeedMPH,Gust SpeedMPH,PrecipitationIn,Events,Conditions,WindDirDegrees,DateUTC
12:56 AM,48.0,30.9,52,29.87,-9999.0,Calm,Calm,-,N/A,,Unknown,0,2012-10-05 04:56:00
1:56 AM,46.9,30.0,52,29.88,-9999.0,Variable,6.9,-,N/A,,Unknown,0,2012-10-05 05:56:00
2:56 AM,44.1,28.9,55,29.89,-9999.0,South,4.6,-,N/A,,Unknown,190,2012-10-05 06:56:00
3:56 AM,43.0,28.9,58,29.87,-9999.0,Variable,3.5,-,N/A,,Unknown,0,2012-10-05 07:56:00
4:56 AM,41.0,28.9,62,29.88,-9999.0,SSW,4.6,-,N/A,,Unknown,200,2012-10-05 08:56:00
5:56 AM,39.0,28.0,65,29.89,-9999.0,SSW,5.8,-,N/A,,Unknown,200,2012-10-05 09:56:00
6:56 AM,39.9,28.0,63,29.88,-9999.0,South,4.6,-,N/A,,Unknown,190,2012-10-05 10:56:00
7:56 AM,39.9,28.0,63,29.89,-9999.0,SW,5.8,-,N/A,,Unknown,220,2012-10-05 11:56:00
8:56 AM,41.0,28.0,60,29.88,-9999.0,SSW,5.8,-,N/A,,Unknown,200,2012-10-05 12:56:00
9:56 AM,44.1,28.0,53,29.88,-9999.0,SSW,8.1,-,N/A,,Unknown,210,2012-10-05 13:56:00
10:56 AM,44.1,28.0,53,29.88,-9999.0,WSW,5.8,17.3,N/A,,Unknown,240,2012-10-05 14:56:00
11:56 AM,46.0,27.0,47,29.89,-9999.0,Variable,4.6,-,N/A,,Unknown,0,2012-10-05 15:56:00
12:56 PM,46.0,27.0,47,29.89,-9999.0,West,10.4,17.3,N/A,,Unknown,270,2012-10-05 16:56:00
1:56 PM,46.9,28.0,48,29.88,-9999.0,WSW,10.4,23.0,N/A,,Unknown,250,2012-10-05 17:56:00
2:56 PM,46.9,27.0,46,29.87,-9999.0,SW,9.2,-,N/A,,Unknown,220,2012-10-05 18:56:00
3:56 PM,46.9,26.1,44,29.87,-9999.0,West,10.4,18.4,N/A,,Unknown,260,2012-10-05 19:56:00
4:56 PM,46.0,26.1,46,29.88,-9999.0,WSW,9.2,-,N/A,,Unknown,240,2012-10-05 20:56:00
5:56 PM,45.0,26.1,48,29.88,-9999.0,SW,4.6,-,N/A,,Unknown,230,2012-10-05 21:56:00
6:56 PM,45.0,25.0,46,29.88,-9999.0,WSW,5.8,-,N/A,,Unknown,240,2012-10-05 22:56:00
7:56 PM,44.1,24.1,45,29.88,-9999.0,Variable,4.6,-,N/A,,Unknown,0,2012-10-05 23:56:00
8:56 PM,43.0,24.1,47,29.87,-9999.0,Variable,4.6,-,N/A,,Unknown,0,2012-10-06 00:56:00
9:56 PM,43.0,25.0,49,29.86,-9999.0,WSW,8.1,-,N/A,,Unknown,240,2012-10-06 01:56:00
10:56 PM,42.1,26.1,53,29.84,-9999.0,WSW,10.4,-,N/A,,Unknown,250,2012-10-06 02:56:00
11:56 PM,42.1,26.1,53,29.83,-9999.0,WSW,9.2,16.1,N/A,,Unknown,250,2012-10-06 03:56:00